Time,TemperatureF,DewpointF,PressureIn,WindDirection,WindDirectionDegrees,WindSpeedMPH,WindSpeedGustMPH,Humidity,HourlyPrecipIn,Conditions,Clouds,dailyrainin,SoftwareType,DateUTC
2013-01-08 00:03:00,28.0,27.0,30.16,SSW,192,14.0,18.0,96,0.00,,,0.00,,2013-01-08 05:03:00,
2013-01-08 00:12:00,28.0,27.0,30.16,SSW,192,14.0,18.0,96,0.00,,,0.00,,2013-01-08 05:12:00,
2013-01-08 00:22:00,29.0,28.0,30.17,SW,235,9.0,13.0,95,0.00,,,0.00,,2013-01-08 05:22:00,
2013-01-08 00:33:00,29.0,28.0,30.16,SW,218,8.0,10.0,95,0.00,,,0.00,,2013-01-08 05:33:00,
2013-01-08 00:42:00,29.0,28.0,30.16,SW,218,8.0,10.0,95,0.00,,,0.00,,2013-01-08 05:42:00,
2013-01-08 00:53:00,29.0,28.0,30.17,SW,235,9.0,9.0,96,0.00,,,0.00,,2013-01-08 05:53:00,
2013-01-08 01:02:00,29.0,28.0,30.16,WSW,239,7.0,9.0,95,0.00,,,0.00,,2013-01-08 06:02:00,
2013-01-08 01:12:00,29.0,28.0,30.16,WSW,239,7.0,9.0,95,0.00,,,0.00,,2013-01-08 06:12:00,
2013-01-08 01:22:00,29.0,28.0,30.17,WSW,239,7.0,9.0,96,0.00,,,0.00,,2013-01-08 06:22:00,
2013-01-08 01:32:00,29.0,28.0,30.18,West,276,1.0,7.0,95,0.00,,,0.00,,2013-01-08 06:32:00,
2013-01-08 01:42:00,29.0,28.0,30.18,West,276,1.0,7.0,95,0.00,,,0.00,,2013-01-08 06:42:00,
2013-01-08 01:53:00,29.0,28.0,30.18,West,272,0.0,0.0,95,0.00,,,0.00,,2013-01-08 06:53:00,
2013-01-08 02:02:00,28.0,27.0,30.18,WSW,245,6.0,13.0,96,0.00,,,0.00,,2013-01-08 07:02:00,
2013-01-08 02:12:00,28.0,27.0,30.18,WSW,245,6.0,13.0,96,0.00,,,0.00,,2013-01-08 07:12:00,
2013-01-08 02:22:00,29.0,28.0,30.19,SW,227,6.0,6.0,96,0.00,,,0.00,,2013-01-08 07:22:00,
2013-01-08 02:32:00,29.0,28.0,30.19,SW,233,6.0,8.0,96,0.00,,,0.00,,2013-01-08 07:32:00,
2013-01-08 02:42:00,29.0,28.0,30.19,SW,233,6.0,8.0,96,0.00,,,0.00,,2013-01-08 07:42:00,
2013-01-08 02:52:00,29.0,28.0,30.19,WSW,250,5.0,7.0,96,0.00,,,0.00,,2013-01-08 07:52:00,
2013-01-08 03:02:00,29.0,28.0,30.19,SW,227,7.0,8.0,96,0.00,,,0.00,,2013-01-08 08:02:00,
2013-01-08 03:12:00,29.0,28.0,30.19,SW,227,7.0,8.0,96,0.00,,,0.00,,2013-01-08 08:12:00,
2013-01-08 03:22:00,29.0,28.0,30.19,SSW,205,6.0,8.0,96,0.00,,,0.00,,2013-01-08 08:22:00,
2013-01-08 03:32:00,29.0,28.0,30.19,WSW,241,5.0,6.0,96,0.00,,,0.00,,2013-01-08 08:32:00,
2013-01-08 03:42:00,29.0,28.0,30.19,WSW,241,5.0,6.0,96,0.00,,,0.00,,2013-01-08 08:42:00,
2013-01-08 03:53:00,28.0,27.0,30.19,SSW,213,6.0,7.0,97,0.00,,,0.00,,2013-01-08 08:53:00,
2013-01-08 04:02:00,28.0,27.0,30.19,SSW,213,5.0,8.0,97,0.00,,,0.00,,2013-01-08 09:02:00,
2013-01-08 04:12:00,28.0,27.0,30.19,SSW,208,6.0,7.0,97,0.00,,,0.00,,2013-01-08 09:12:00,
2013-01-08 04:22:00,28.0,27.0,30.19,SSW,208,6.0,7.0,97,0.00,,,0.00,,2013-01-08 09:22:00,
2013-01-08 04:32:00,28.0,28.0,30.19,SSW,205,6.0,10.0,98,0.00,,,0.00,,2013-01-08 09:32:00,
2013-01-08 04:42:00,28.0,28.0,30.19,SSW,205,6.0,10.0,98,0.00,,,0.00,,2013-01-08 09:42:00,
2013-01-08 04:52:00,28.0,27.0,30.19,South,184,0.0,0.0,97,0.00,,,0.00,,2013-01-08 09:52:00,
2013-01-08 05:02:00,27.0,27.0,30.18,South,169,2.0,5.0,98,0.00,,,0.00,,2013-01-08 10:02:00,
2013-01-08 05:12:00,27.0,27.0,30.18,South,169,2.0,5.0,98,0.00,,,0.00,,2013-01-08 10:12:00,
2013-01-08 05:22:00,27.0,27.0,30.18,South,191,0.0,0.0,98,0.00,,,0.00,,2013-01-08 10:22:00,
2013-01-08 05:32:00,26.0,26.0,30.18,South,191,0.0,0.0,98,0.00,,,0.00,,2013-01-08 10:32:00,
2013-01-08 05:42:00,26.0,26.0,30.18,South,191,0.0,0.0,98,0.00,,,0.00,,2013-01-08 10:42:00,
2013-01-08 05:52:00,26.0,26.0,30.18,SSW,195,5.0,6.0,99,0.00,,,0.00,,2013-01-08 10:52:00,
2013-01-08 06:02:00,26.0,26.0,30.18,South,191,3.0,5.0,99,0.00,,,0.00,,2013-01-08 11:02:00,
2013-01-08 06:12:00,26.0,26.0,30.18,South,191,3.0,5.0,99,0.00,,,0.00,,2013-01-08 11:12:00,
2013-01-08 06:22:00,27.0,27.0,30.18,SSW,203,6.0,7.0,99,0.00,,,0.00,,2013-01-08 11:22:00,
2013-01-08 06:32:00,27.0,27.0,30.18,SSW,199,5.0,6.0,99,0.00,,,0.00,,2013-01-08 11:32:00,
2013-01-08 06:42:00,27.0,27.0,30.18,SSW,199,5.0,6.0,99,0.00,,,0.00,,2013-01-08 11:42:00,
2013-01-08 06:53:00,27.0,27.0,30.18,SW,218,3.0,5.0,99,0.00,,,0.00,,2013-01-08 11:53:00,
2013-01-08 07:02:00,27.0,27.0,30.18,SSW,192,3.0,6.0,99,0.00,,,0.00,,2013-01-08 12:02:00,
2013-01-08 07:12:00,27.0,27.0,30.18,SSW,192,3.0,6.0,99,0.00,,,0.00,,2013-01-08 12:12:00,
2013-01-08 07:22:00,27.0,27.0,30.19,SSW,209,6.0,7.0,99,0.00,,,0.00,,2013-01-08 12:22:00,
2013-01-08 07:32:00,27.0,27.0,30.19,SSW,210,2.0,3.0,99,0.00,,,0.00,,2013-01-08 12:32:00,
2013-01-08 07:42:00,27.0,27.0,30.19,SSW,210,2.0,3.0,99,0.00,,,0.00,,2013-01-08 12:42:00,
2013-01-08 07:53:00,27.0,27.0,30.19,SW,217,7.0,9.0,99,0.00,,,0.00,,2013-01-08 12:53:00,
2013-01-08 08:03:00,27.0,27.0,30.19,SSW,201,7.0,9.0,99,0.00,,,0.00,,2013-01-08 13:03:00,
2013-01-08 08:12:00,27.0,27.0,30.19,SSW,201,7.0,9.0,99,0.00,,,0.00,,2013-01-08 13:12:00,
2013-01-08 08:22:00,28.0,28.0,30.20,SSW,205,7.0,9.0,98,0.00,,,0.00,,2013-01-08 13:22:00,
2013-01-08 08:32:00,28.0,28.0,30.21,South,189,3.0,10.0,98,0.00,,,0.00,,2013-01-08 13:32:00,
2013-01-08 08:42:00,28.0,28.0,30.21,South,189,3.0,10.0,98,0.00,,,0.00,,2013-01-08 13:42:00,
2013-01-08 08:53:00,28.0,28.0,30.21,SW,215,8.0,9.0,98,0.00,,,0.00,,2013-01-08 13:53:00,
2013-01-08 09:02:00,28.0,27.0,30.21,SW,223,5.0,8.0,97,0.00,,,0.00,,2013-01-08 14:02:00,
2013-01-08 09:12:00,28.0,27.0,30.21,SW,223,5.0,8.0,97,0.00,,,0.00,,2013-01-08 14:12:00,
2013-01-08 09:23:00,29.0,28.0,30.21,SW,218,6.0,8.0,97,0.00,,,0.00,,2013-01-08 14:23:00,
2013-01-08 09:33:00,29.0,28.0,30.22,SW,229,7.0,10.0,96,0.00,,,0.00,,2013-01-08 14:33:00,
2013-01-08 09:43:00,29.0,28.0,30.22,SW,229,7.0,10.0,96,0.00,,,0.00,,2013-01-08 14:43:00,
2013-01-08 09:53:00,30.0,29.0,30.23,WSW,239,6.0,8.0,96,0.00,,,0.00,,2013-01-08 14:53:00,
2013-01-08 10:02:00,30.0,29.0,30.23,SW,219,6.0,7.0,95,0.00,,,0.00,,2013-01-08 15:02:00,
2013-01-08 10:12:00,30.0,29.0,30.23,SW,219,6.0,7.0,95,0.00,,,0.00,,2013-01-08 15:12:00,
2013-01-08 10:22:00,31.0,29.0,30.24,SW,235,6.0,7.0,94,0.00,,,0.00,,2013-01-08 15:22:00,
2013-01-08 10:33:00,32.0,30.0,30.23,WSW,249,6.0,8.0,94,0.00,,,0.00,,2013-01-08 15:33:00,
2013-01-08 10:43:00,32.0,30.0,30.23,WSW,249,6.0,8.0,94,0.00,,,0.00,,2013-01-08 15:43:00,
2013-01-08 10:53:00,34.0,32.0,30.24,SW,231,7.0,12.0,92,0.00,,,0.00,,2013-01-08 15:53:00,
2013-01-08 11:03:00,35.0,33.0,30.23,SW,225,6.0,7.0,91,0.00,,,0.00,,2013-01-08 16:03:00,
2013-01-08 11:12:00,35.0,33.0,30.23,SW,225,6.0,7.0,91,0.00,,,0.00,,2013-01-08 16:12:00,
2013-01-08 11:22:00,36.0,33.0,30.23,WSW,237,8.0,10.0,88,0.00,,,0.00,,2013-01-08 16:22:00,
2013-01-08 11:33:00,37.0,34.0,30.23,WSW,245,6.0,12.0,87,0.00,,,0.00,,2013-01-08 16:33:00,
2013-01-08 11:42:00,37.0,34.0,30.23,WSW,245,6.0,12.0,87,0.00,,,0.00,,2013-01-08 16:42:00,
2013-01-08 11:53:00,37.0,33.0,30.23,SSW,213,1.0,3.0,85,0.00,,,0.00,,2013-01-08 16:53:00,
2013-01-08 12:03:00,38.0,33.0,30.22,SW,234,2.0,6.0,83,0.00,,,0.00,,2013-01-08 17:03:00,
2013-01-08 12:12:00,38.0,33.0,30.22,SW,234,2.0,6.0,83,0.00,,,0.00,,2013-01-08 17:12:00,
2013-01-08 12:23:00,39.0,34.0,30.22,SW,236,8.0,9.0,81,0.00,,,0.00,,2013-01-08 17:23:00,
2013-01-08 12:33:00,39.0,33.0,30.21,SW,235,8.0,12.0,80,0.00,,,0.00,,2013-01-08 17:33:00,
2013-01-08 12:43:00,39.0,33.0,30.21,SW,235,8.0,12.0,80,0.00,,,0.00,,2013-01-08 17:43:00,
2013-01-08 12:53:00,40.0,34.0,30.21,SSW,201,6.0,8.0,79,0.00,,,0.00,,2013-01-08 17:53:00,
2013-01-08 13:03:00,40.0,33.0,30.20,SW,221,6.0,9.0,77,0.00,,,0.00,,2013-01-08 18:03:00,
2013-01-08 13:12:00,40.0,33.0,30.20,SW,221,6.0,9.0,77,0.00,,,0.00,,2013-01-08 18:12:00,
2013-01-08 13:23:00,41.0,34.0,30.20,SW,228,10.0,13.0,76,0.00,,,0.00,,2013-01-08 18:23:00,
2013-01-08 13:33:00,41.0,34.0,30.19,WSW,244,8.0,10.0,76,0.00,,,0.00,,2013-01-08 18:33:00,
2013-01-08 13:43:00,41.0,34.0,30.19,WSW,244,8.0,10.0,76,0.00,,,0.00,,2013-01-08 18:43:00,
2013-01-08 13:53:00,42.0,34.0,30.18,SW,214,8.0,10.0,74,0.00,,,0.00,,2013-01-08 18:53:00,
2013-01-08 14:03:00,42.0,34.0,30.18,SSW,213,12.0,15.0,73,0.00,,,0.00,,2013-01-08 19:03:00,
2013-01-08 14:12:00,42.0,34.0,30.18,SSW,213,12.0,15.0,73,0.00,,,0.00,,2013-01-08 19:12:00,
2013-01-08 14:22:00,42.0,34.0,30.18,WSW,241,9.0,14.0,73,0.00,,,0.00,,2013-01-08 19:22:00,
2013-01-08 14:32:00,42.0,33.0,30.17,WSW,244,8.0,14.0,71,0.00,,,0.00,,2013-01-08 19:32:00,
2013-01-08 14:42:00,42.0,33.0,30.17,WSW,244,8.0,14.0,71,0.00,,,0.00,,2013-01-08 19:42:00,
2013-01-08 14:53:00,43.0,34.0,30.17,SSW,201,10.0,16.0,69,0.00,,,0.00,,2013-01-08 19:53:00,
2013-01-08 15:02:00,43.0,34.0,30.17,SW,221,7.0,10.0,70,0.00,,,0.00,,2013-01-08 20:02:00,
2013-01-08 15:12:00,43.0,34.0,30.17,SW,221,7.0,10.0,70,0.00,,,0.00,,2013-01-08 20:12:00,
2013-01-08 15:23:00,43.0,34.0,30.17,SW,220,7.0,8.0,71,0.00,,,0.00,,2013-01-08 20:23:00,
2013-01-08 15:33:00,43.0,34.0,30.17,SW,214,8.0,10.0,71,0.00,,,0.00,,2013-01-08 20:33:00,
2013-01-08 15:43:00,43.0,34.0,30.17,SW,214,8.0,10.0,71,0.00,,,0.00,,2013-01-08 20:43:00,
2013-01-08 15:53:00,43.0,34.0,30.18,SSW,211,7.0,10.0,70,0.00,,,0.00,,2013-01-08 20:53:00,
2013-01-08 16:02:00,43.0,35.0,30.18,SSW,196,7.0,10.0,72,0.00,,,0.00,,2013-01-08 21:02:00,
2013-01-08 16:12:00,43.0,35.0,30.18,SSW,196,7.0,10.0,72,0.00,,,0.00,,2013-01-08 21:12:00,
2013-01-08 16:22:00,43.0,35.0,30.18,South,184,8.0,12.0,72,0.00,,,0.00,,2013-01-08 21:22:00,
2013-01-08 16:33:00,42.0,34.0,30.18,SW,217,8.0,10.0,73,0.00,,,0.00,,2013-01-08 21:33:00,
2013-01-08 16:43:00,42.0,34.0,30.18,SW,217,8.0,10.0,73,0.00,,,0.00,,2013-01-08 21:43:00,
2013-01-08 16:53:00,41.0,34.0,30.18,SSW,200,7.0,9.0,76,0.00,,,0.00,,2013-01-08 21:53:00,
2013-01-08 17:03:00,41.0,34.0,30.18,SSW,198,5.0,7.0,77,0.00,,,0.00,,2013-01-08 22:03:00,
2013-01-08 17:12:00,41.0,34.0,30.18,SSW,198,5.0,7.0,77,0.00,,,0.00,,2013-01-08 22:12:00,
2013-01-08 17:22:00,41.0,35.0,30.17,SSW,205,6.0,10.0,78,0.00,,,0.00,,2013-01-08 22:22:00,
2013-01-08 17:32:00,40.0,34.0,30.17,South,185,7.0,9.0,79,0.00,,,0.00,,2013-01-08 22:32:00,
2013-01-08 17:42:00,40.0,34.0,30.17,South,185,7.0,9.0,79,0.00,,,0.00,,2013-01-08 22:42:00,
2013-01-08 17:53:00,40.0,34.0,30.17,SSW,195,5.0,6.0,80,0.00,,,0.00,,2013-01-08 22:53:00,
2013-01-08 18:02:00,39.0,34.0,30.17,South,184,6.0,7.0,81,0.00,,,0.00,,2013-01-08 23:02:00,
2013-01-08 18:12:00,39.0,34.0,30.17,South,184,6.0,7.0,81,0.00,,,0.00,,2013-01-08 23:12:00,
2013-01-08 18:22:00,38.0,34.0,30.16,South,180,6.0,8.0,84,0.00,,,0.00,,2013-01-08 23:22:00,
2013-01-08 18:32:00,38.0,34.0,30.17,SSW,202,6.0,6.0,84,0.00,,,0.00,,2013-01-08 23:32:00,
2013-01-08 18:43:00,38.0,34.0,30.17,SSW,202,6.0,6.0,84,0.00,,,0.00,,2013-01-08 23:43:00,
2013-01-08 18:53:00,37.0,33.0,30.16,South,184,7.0,8.0,86,0.00,,,0.00,,2013-01-08 23:53:00,
2013-01-08 19:02:00,37.0,34.0,30.16,South,179,7.0,9.0,87,0.00,,,0.00,,2013-01-09 00:02:00,
2013-01-08 19:12:00,37.0,34.0,30.16,South,179,7.0,9.0,87,0.00,,,0.00,,2013-01-09 00:12:00,
2013-01-08 19:22:00,36.0,33.0,30.17,South,188,7.0,10.0,88,0.00,,,0.00,,2013-01-09 00:22:00,
2013-01-08 19:33:00,36.0,33.0,30.16,South,171,3.0,5.0,89,0.00,,,0.00,,2013-01-09 00:33:00,
2013-01-08 19:42:00,36.0,33.0,30.16,South,171,3.0,5.0,89,0.00,,,0.00,,2013-01-09 00:42:00,
2013-01-08 19:53:00,36.0,33.0,30.17,South,174,3.0,5.0,89,0.00,,,0.00,,2013-01-09 00:53:00,
2013-01-08 20:02:00,36.0,33.0,30.17,South,174,5.0,6.0,90,0.00,,,0.00,,2013-01-09 01:02:00,
2013-01-08 20:12:00,36.0,33.0,30.17,South,174,5.0,6.0,90,0.00,,,0.00,,2013-01-09 01:12:00,
2013-01-08 20:22:00,35.0,32.0,30.18,South,187,5.0,6.0,90,0.00,,,0.00,,2013-01-09 01:22:00,
2013-01-08 20:32:00,35.0,32.0,30.18,SSW,201,5.0,6.0,90,0.00,,,0.00,,2013-01-09 01:32:00,
2013-01-08 20:42:00,35.0,32.0,30.18,SSW,201,5.0,6.0,90,0.00,,,0.00,,2013-01-09 01:42:00,
2013-01-08 20:52:00,34.0,32.0,30.18,SSW,199,6.0,8.0,91,0.00,,,0.00,,2013-01-09 01:52:00,
2013-01-08 21:02:00,34.0,32.0,30.17,South,185,5.0,7.0,91,0.00,,,0.00,,2013-01-09 02:02:00,
2013-01-08 21:12:00,34.0,32.0,30.17,South,185,5.0,7.0,91,0.00,,,0.00,,2013-01-09 02:12:00,
2013-01-08 21:22:00,35.0,33.0,30.16,South,185,6.0,7.0,91,0.00,,,0.00,,2013-01-09 02:22:00,
2013-01-08 21:32:00,35.0,32.0,30.16,SSW,194,7.0,8.0,90,0.00,,,0.00,,2013-01-09 02:32:00,
2013-01-08 21:42:00,35.0,32.0,30.16,SSW,194,7.0,8.0,90,0.00,,,0.00,,2013-01-09 02:42:00,
2013-01-08 21:53:00,35.0,32.0,30.16,SSW,198,7.0,10.0,89,0.00,,,0.00,,2013-01-09 02:53:00,
2013-01-08 22:03:00,36.0,33.0,30.16,SSW,200,9.0,12.0,88,0.00,,,0.00,,2013-01-09 03:03:00,
2013-01-08 22:12:00,36.0,33.0,30.16,SSW,200,9.0,12.0,88,0.00,,,0.00,,2013-01-09 03:12:00,
2013-01-08 22:22:00,36.0,33.0,30.16,SSW,193,9.0,13.0,87,0.00,,,0.00,,2013-01-09 03:22:00,
2013-01-08 22:33:00,36.0,33.0,30.16,SSW,204,7.0,10.0,87,0.00,,,0.00,,2013-01-09 03:33:00,
2013-01-08 22:42:00,36.0,33.0,30.16,SSW,204,7.0,10.0,87,0.00,,,0.00,,2013-01-09 03:42:00,
2013-01-08 22:53:00,36.0,33.0,30.15,SSW,194,7.0,9.0,87,0.00,,,0.00,,2013-01-09 03:53:00,
2013-01-08 23:02:00,36.0,33.0,30.16,SSW,193,7.0,8.0,88,0.00,,,0.00,,2013-01-09 04:02:00,
2013-01-08 23:12:00,36.0,33.0,30.16,SSW,193,7.0,8.0,88,0.00,,,0.00,,2013-01-09 04:12:00,
2013-01-08 23:22:00,36.0,33.0,30.16,SSW,209,7.0,9.0,88,0.00,,,0.00,,2013-01-09 04:22:00,
2013-01-08 23:32:00,36.0,33.0,30.15,SSW,203,8.0,12.0,88,0.00,,,0.00,,2013-01-09 04:32:00,
2013-01-08 23:42:00,37.0,34.0,30.15,SSW,206,8.0,13.0,88,0.00,,,0.00,,2013-01-09 04:42:00,
2013-01-08 23:52:00,37.0,34.0,30.15,SSW,206,8.0,13.0,88,0.00,,,0.00,,2013-01-09 04:52:00,